Simultaneous Nadir Overpasses (SNOs) Predictions

Prediction of SNOs between AQUA and GOES-15 Satellite Orbit:

Table of predicted SNOs for the next 14.0 days since TLE Epoch: 1/23/2015
Index Date Time (AQUA) AQUA Lat,Lon GOES-15 Lat,Lon Distance(km) Time Diff (sec)
1 01/25/2015 10:32:41 -0.21,-134.20 -0.10,-134.74 61.71 80
2 01/27/2015 10:20:31 -0.85,-131.24 -0.09,-134.83 407.73 80
3 01/27/2015 22:41:55 -0.23,-136.44 0.09,-134.85 180.23 80
4 01/29/2015 22:29:44 0.37,-133.48 0.09,-134.94 165.49 80
5 01/30/2015 10:51:00 0.71,-138.64 -0.09,-134.97 417.99 80
6 02/01/2015 10:38:49 0.09,-135.68 -0.08,-135.05 72.83 80
7 02/03/2015 10:26:39 -0.61,-132.73 -0.08,-135.12 272.24 80
8 02/03/2015 22:48:03 -0.50,-137.92 0.08,-135.14 316.49 80
9 02/05/2015 22:35:51 0.11,-134.96 0.07,-135.21 28.39 80




NCC Satellite Simultaneous Nadir Overpasses (SNOs) Prediction Service
